Location: *
(47.8307°S, 178.3954°E)
Time: 06:44:53
(UTC+00:00)

AQUARIUS - Pass Details

Date: 12 August 2024
Orbit: 640 x 642 km, 98.0° (Epoch: 18 September)

Event Time Altitude Azimuth Distance (km) Brightness Sun altitude
Rises 18:07:14 0° 359° (N) 2,945 7.6 -11.5°
Reaches altitude 10° 18:09:30 10° 352° (N) 2,044 6.8 -11.1°
Maximum altitude 18:13:47 45° 279° (W) 887 4.4 -10.4°
Drops below altitude 10° 18:18:08 10° 205° (SSW) 2,074 6.4 -9.7°
Sets 18:20:27 0° 198° (SSW) 2,993 7.3 -9.3°
